Miscellaneous Local Product
Issued by NWS Hastings, NE

Home | Current Version | Previous Version | Graphics & Text | Print | Product List | Glossary On
Versions: 1 2 3 4 5 6 7 8 9 10 11 12 13 14 15 16 17 18 19 20 21 22 23 24 25 26 27 28 29 30 31 32 33 34 35 36 37 38 39 40 41 42 43 44 45 46 47 48 49 50
000
AXUS43 KGID 191402
MISGRI

GID CWA HOURLY WEATHER ROUNDUP
NATIONAL WEATHER SERVICE HASTINGS NE
800 AM CST THU JAN 19 2017

NOTE: "FAIR" INDICATES FEW OR NO CLOUDS BELOW 12,000 FEET WITH NO
SIGNIFICANT WEATHER AND/OR OBSTRUCTIONS TO VISIBILITY.

...SOUTH CENTRAL NEBRASKA...

CITY           SKY/WX    TMP DP  RH WIND       PRES   REMARKS
GRAND ISLAND   FOG       36  36 100 SE6       29.70F VSB 1/2 WCI  31
HASTINGS       FOG       37  37 100 SE7       29.70F VSB 1/2 WCI  32
KEARNEY        CLOUDY    36  34  93 SE6       29.68F VSB 1/4 WCI  31
ORD            FOG       37  35  92 CALM      29.67S VSB 1/2
YORK           FOG       37  37 100 CALM      29.72F VSB<1/4
AURORA         FOG       36  36 100 SE5       29.70F VSB 1/2 WCI  32
LEXINGTON      FOG       37  36  96 CALM      29.67R VSB 1/2
HOLDREGE       FOG       37  37  97 SE6       29.67S VSB 1/4 WCI  33
HEBRON         CLOUDY    39  38  98 S5        29.73F FOG

...NEBRASKA PANHANDLE...

CITY           SKY/WX    TMP DP  RH WIND       PRES   REMARKS
CHADRON        CLOUDY    17  13  84 SW8       29.57S WCI   7
ALLIANCE       CLOUDY    13  10  88 CALM      29.58S
SCOTTSBLUFF    CLOUDY    22  16  78 E6        29.59F WCI  14
SIDNEY         CLOUDY    21  16  81 NW5       29.59F WCI  15

...WESTERN AND NORTH CENTRAL NEBRASKA...

CITY           SKY/WX    TMP DP  RH WIND       PRES   REMARKS
VALENTINE      CLOUDY    23  19  85 S6        29.58S WCI  16
AINSWORTH      CLEAR     31  31 100 S9        29.58F WCI  22
ONEILL         FOG       37  37  99 S10G16    29.67R VSB 3/4 WCI  30
BROKEN BOW     FOG       37  37 100 S9        29.65S VSB 1/2 WCI  30
IMPERIAL       CLOUDY    22  19  89 W3        29.60F
NORTH PLATTE   FOG       32  31  96 SE6       29.62F VSB 1/4 WCI  26
MCCOOK         FOG       35  35 100 SW5       29.64F VSB 1   WCI  31

...EASTERN NEBRASKA...

CITY           SKY/WX    TMP DP  RH WIND       PRES   REMARKS
NORFOLK        FOG       35  34  96 S6        29.72F VSB 1   WCI  30
SO SIOUX CITY  CLOUDY    34  33  96 E8        29.76S FOG     WCI  27
TEKAMAH        CLEAR     32  31  96 SE8       29.78F FOG     WCI  25
COLUMBUS       CLOUDY    36  34  93 SE3       29.74F VSB 3/4
ALBION         FOG       36  35  96 SE3       29.71S VSB 1/2
OMAHA EPPLEY   CLOUDY    34  30  85 CALM      29.79S FOG
OFFUTT AFB     MOCLDY    34  34 100 E7        29.78F FOG     WCI  28
MILLARD        FOG       33  32  96 CALM      29.79S VSB 1
LINCOLN        CLOUDY    34  32  92 CALM      29.78S FOG
NEBRASKA CITY  FOG       37  37 100 S8        29.79R VSB 1/4 WCI  30
BEATRICE       CLOUDY    38  38  99 SE5       29.76S FOG     WCI  34
FALLS CITY     FOG       37  37 100 CALM      29.79S VSB 1/4

...NORTHERN KANSAS...

CITY           SKY/WX    TMP DP  RH WIND       PRES   REMARKS
GOODLAND       CLOUDY    22  21  96 S7        29.59F WCI  13
HILL CITY      CLOUDY    42  42 100 E6        29.66S FOG
NORTON         FOG       39  36  87 CALM      29.65S VSB 1/4
PHILLIPSBURG   FOG       41  41 100 E5        29.68F VSB 1/2
SMITH CENTER   FOG       37  37 100 E8        29.69F VSB 1/2 WCI  31
HAYS           CLOUDY    44  42  93 S8        29.67S
RUSSELL        CLOUDY    44  42  93 SE12      29.66F
CONCORDIA      CLOUDY    42  42 100 S8        29.73S FOG
SALINA         CLOUDY    45  43  93 SE10      29.74F FOG
TOPEKA         CLOUDY    45  42  89 SE9       29.78F FOG



USA.gov is the U.S. government's official web portal to all federal, state and local government web resources and services.